Regional Weather Roundup
Issued by NWS Cleveland, OH

Home | Current Version | Previous Version | Text Only | Print | Product List | Glossary Off
Versions: 1 2 3 4 5 6 7 8 9 10 11 12 13 14 15 16 17 18 19 20 21 22 23 24 25 26 27 28 29 30 31 32 33 34 35 36 37 38 39 40 41 42 43 44 45 46 47 48 49 50

000
ASUS41 KCLE 201002
RWRCLE
OHIO REGIONAL WEATHER ROUNDUP
NATIONAL WEATHER SERVICE CLEVELAND, OH
500 AM EST FRI JAN 20 2017

NOTE: "FAIR" INDICATES FEW OR NO CLOUDS BELOW 12,000 FEET WITH NO
SIGNIFICANT WEATHER AND/OR OBSTRUCTIONS TO VISIBILITY.

OHZ001>008-015>018-024>027-034-035-043-044-201100-
   NORTHWEST OHIO

CITY           SKY/WX    TMP DP  RH WIND       PRES   REMARKS
DEFIANCE       LGT RAIN  35  34  96 NE13      29.64F FOG     WCI  26
FINDLAY        LGT RAIN  40  36  86 E16       29.62F FOG
TOLEDO EXPRESS RAIN      34  34 100 E15       29.67F FOG     WCI  24
TOLEDO EXEC    LGT RAIN  36  35  96 NE12      29.70F FOG
LIMA           RAIN      40  40 100 E15G26    29.58F FOG
$$

OHZ009>014-019>023-028>033-038-089-201100-
   NORTHEAST OHIO

CITY           SKY/WX    TMP DP  RH WIND       PRES   REMARKS
CLE-HOPKINS    LGT RAIN  41  34  76 S7        29.76F
CLE-LAKEFRONT  MOCLDY    40  34  79 SE6       29.74F
CUY CO. ARPT   NOT AVBL
LORAIN-ELYRIA  MIX PCPN  37  33  85 SE7       29.73F
ASHTABULA      CLOUDY    36  32  85 SE8       29.78F
AKRON-CANTON   LGT RAIN  38  34  85 SE8       29.74F
WOOSTER        LGT RAIN  37  35  92 E7        29.72F
MANSFIELD      LGT RAIN  38  37  97 E15       29.68F FOG
YOUNGSTOWN     CLOUDY    35  32  88 E10       29.76F WCI  27
$$

OHZ042-051>053-060>062-070>072-077>081-201100-
  SOUTHWEST OHIO

CITY           SKY/WX    TMP DP  RH WIND       PRES   REMARKS
CINC-COVINGTON LGT RAIN  52  51  97 SW7       29.61R FOG
CINC-LUNKEN    CLOUDY    51  50  96 S10       29.62R
HAMILTON       LGT RAIN  51  50  96 CALM      29.61R
DAYTON         RAIN      43  42  97 SE10      29.60S FOG
WRIGHT-PAT AFB LGT RAIN  44  44 100 SE10      29.60F
DAYTON GENERAL LGT RAIN  47  46  97 SE9       29.59S FOG
WILMINGTON     LGT RAIN  44  44 100 SE15      29.60F
$$

OHZ036-037-039>041-045>050-054>059-063>069-073>076-082>088-201100-
  CENTRAL AND SOUTHEAST OHIO

CITY           SKY/WX    TMP DP  RH WIND       PRES   REMARKS
COLUMBUS       LGT RAIN  44  40  85 E14       29.64F
OSU AIRPORT    LGT RAIN  42  42 100 E12       29.62F
BOLTON FIELD   HVY RAIN  41  40  99 SE14      29.64F
RICKENBACK AFB RAIN      41  41 100 SE12G17   29.65F
NEWARK         LGT RAIN  40  38  93 NE6       29.67F FOG
MARION         RAIN      41  39  93 SE13      29.64F FOG
LANCASTER      RAIN      43  40  89 SE7       29.68F FOG
ZANESVILLE     RAIN      40  38  93 E7        29.70F FOG
NEW PHILLY     NOT AVBL
$$



USA.gov is the U.S. government's official web portal to all federal, state and local government web resources and services.